Погода в Утене

Погода в Утене : погода сейчас, прогноз погоды и архив. Всё, что Вы хотите узнать о погоде в Утене!

Поиск расширенной информации на нашем сайте:

Другие новости

Новости СМИ2

Главная страница сайта

Новости сайта

03.07.2017

Напоминаем, что на нашем специализированном сайте Метеоцентр.Азия вы можете получить высокодетализированные автоматические прогнозы погоды по пунктам России, СНГ и мира в авиационном формате (включающие направление и скорость ветра, видимость, явления погоды, количество и форму облачности, нижнюю и верхнюю границу облачности).


Погода в Утене - сегодня

Время (UTC), дата Ветер
(°,м/с) 
Видим.   Явления Облачность Т
(°С)
Тd
(°С)
f(%) Тe
(°С)
Pmin
(гПа)
dP
(гПа)
Po
(мм)
O2
(г/м3)
Тmin Tmax R s Состояние
почвы
06 17.06.18 180 (Ю) 1-3{04}  20000 м    1/0 верхняя 
[Ci]
+17.7 +12.9 73 +24  1016.5  -0.5  753  282  +8.3        сухая 
09 17.06.18 310 (СЗ) 2-4{04}  20000 м    4/1 1000 м верхняя 
[Cu med, cong|Ci sp]
+23 +10.7 46 +25  1015.8  -0.5  753  278           
12 17.06.18 260 (З) 1-3{07}  20000 м    9/6 1500 м средняя, верхняя 
[Cu med, cong|Ac und|Ci fib]
+25.3 +10.6 40 +27  1014.9  -0.8  752  275           
15 17.06.18 310 (СЗ) 1-4{05}  20000 м    8/5 1000 м средняя, верхняя 
[Cu med, cong|Ac und|Ci fib]
+26.4 +10.2 36 +28  1014.2  -0.7  752  274           
18 17.06.18 290 (З) 1-4{05}  20000 м    6/4 1000 м средняя, верхняя 
[Cu med, cong|Ac und|Ci sp]
+25.2 +10.5 40 +27  1014.3  0.1  752  275    +27.3       
21 17.06.18 160 (Ю) 1-2{04}  20000 м    3/3 600 м 
[Sc]
+16.5 +13.1 80 +23  1015.6  0.9  752  283           
03 18.06.18 тихо () -1{02}  19000 м    ясно 
+11.7 +10.7 94 +14  1015.7  0.2  752  289           
06 18.06.18 тихо () -2{03}  20000 м    3/0 верхняя 
[Ci fib]
+22.1 +12.6 55 +27  1015.4  0.1  752  278  +10.5        сухая 
09 18.06.18 340 (С) 2-4{05}  20000 м    ясно 
+26.8 +7.8 30 +27  1015.5  0.3  753  275           
12 18.06.18 280 (З) 2-5{06}  20000 м    3/3 1000 м средняя 
[Cu med, cong|Ac lent]
+29.3 +7.8 26 +29  1014.7  -0.7  752  272           
15 18.06.18 320 (СЗ) 3-6{11}  20000 м    8/5 600 м средняя 
[Cu med, cong|Ac und]
+24 +13.1 51 +30  1014.4  -0.5  752  276           
18 18.06.18 тихо () -2{09}  14000 м  в посл. час гроза{ливн. осадки}  9/5 600 м кучево-дожд., средняя, верхняя 
[Cb cap|Ac cuf|Ci sp]
+17.6 +16.3 92 +29  1015.9  1.2  753  281    +30.1     
21 18.06.18 тихо () -0{02}  11000 м    3/3 600 м верхняя 
[Sc|Ci sp]
+14.4 +13.3 93 +20  1017.4  1.3  754  286           
00 19.06.18 тихо () -0{00}  10 км    5/3 600 м верхняя 
[Sc|Ci sp]
+12.3 +11.5 95 +15  1017.5  754  288           
03 19.06.18 тихо () -1{02}  9000 м  дымка  6/4 600 м средняя, верхняя 
[Cu med, cong|Ac lent|Ci fib]
+11.8 +11 95 +14  1017.5  754  289           
06 19.06.18 210 (ЮЗ) 1-3{03}  20000 м    9/5 1000 м средняя, верхняя 
[Cu med, cong|Ac und|Ci sp]
+17.3 +11.9 71 +23  1017.2  -0.1  753  283  +11.3        влажная 
09 19.06.18 220 (ЮЗ) 4-7{07}  20000 м    9/3 600 м средняя, верхняя 
[Cu med, cong|Ac und|Ci sp]
+21.7 +11.1 51 +24  1015.5  -1.4  752  279           
12 19.06.18 250 (З) 3-6{10}  20000 м    9/5 1000 м средняя, верхняя 
[Cu med, cong|Ac und|Ci sp]
+22.6 +11.1 48 +25  1013.8  -1.7  751  277           
15 19.06.18 260 (З) 5-12{13}  20000 м    10/10 1500 м 
[Cu med, cong]
+21.1 +12.2 57 +25  1013.8  -0.1  751  279           
18 19.06.18 270 (З) 4-9{12}  20000 м    8/3 600 м средняя, верхняя 
[Cu med, cong|Ac lent|Ci fib]
+20 +9.3 50 +20  1013.7  -0.1  751  280    +24.8       
21 19.06.18 270 (З) 3-5{13}  20000 м    4/0 верхняя 
[Ci sp]
+15.9 +9.2 64 +16  1015.7  1.8  752  285           
00 20.06.18 250 (З) 2-5{06}  20000 м    ясно 
+13.7 +11.2 85 +17  1016  0.2  752  287           
03 20.06.18 240 (ЮЗ) 2-6{08}  16000 м    9/9 270 м 
[St]
+14.1 +12.6 91 +20  1015.9  -0.1  752  286           
06 20.06.18 260 (З) 3-8{09}  20000 м    6/5 1000 м верхняя 
[Cu med, cong|Ci sp]
+17.1 +11.7 71 +21  1016.4  0.6  753  283  +13.3        сухая 
09 20.06.18 270 (З) 5-11{11}  20000 м    4/3 600 м верхняя 
[Cu med, cong|Ci sp]
+19.8 +7 43 +20  1016.7  0.5  753  282           
Время (UTC), дата Ветер
(°,м/с) 
Видим.   Явления Облачность Т
(°С)
Тd
(°С)
f(%) Тe
(°С)
Pmin
(гПа)
dP
(гПа)
Po
(мм)
O2
(г/м3)
Тmin Tmax R s Состояние
почвы

Для получения пояснительной информации подведите курсор к названию столбца.

ПОГОДА в Утене - архив

Всё, что Вы хотите узнать о погоде в Утене - удобно и подробно!

Выберите нужную дату (начиная с 1 января 2015* года) и нажмите кнопку "Найти".
Будут отображены архивные сводки погоды по пункту Утена, начиная с указанной даты.


Отображать данные в формате CSV (для использования в таблицах Excel)


Внимание! Наш архив погоды предназначен исключительно для личного некоммерческого использования в познавательных целях. Если Вам необходимы официальные справки о состоянии погоды (для производственных, юридических, коммерческих и т.п. целей), обращайтесь в органы Росгидромета.

*Примечание: данная дата относится к архиву по метеостанциям СССР (Россия, СНГ, Балтия).
Архив по метеостанциям Зарубежной Европы и Азии (кроме Китая) хранится 10 дней, по другим регионам земного шара (Китай, Африка, Америка, Австралия, Океания) - 1 день.

Утена - район местоположения метеостанции


Название, широта, долгота, высота метеостанции:
Утена 55.5°ш. 25.6°д. 106 м над ур. моря [Литва]

Дополнительная информация

В oтличие oт бoльшинства пoгoдных сайтoв мы публикуем пoдрoбную метеoинфoрмацию в детальнoм прoфессиoнальнoм фoрмате.

Характеристики температуры и влажнoсти вoздуха измеряются на высoте 2 м в тени вдали oт зданий и деревьев.
Скoрoсть ветра измеряется на высoте 10 м (на урoвне рoста челoвека скoрoсть ветра ниже в 1.5-2 раза). Если метеoстанция нахoдится в гoрoде или в лесу, тo скoрoсть ветра занижена на 2-4 м/с пo сравнению с oткрытым местoм. Скoрoсть ветра над акватoриями крупных рек и oзёр, а также на вершинах хoлмoв на 2-5 м/с выше, чем в oбычных услoвиях.
Атмoсфернoе давление в разных тoчках местнoсти мoжет значительнo oтличаться oт давления на метеoстанции, в зависимoсти oт услoвий рельефа (при пoдъёме на 10 м давление пoнижается примернo на 1 мм рт.ст.).